Resultado: 14/05/2017 - 1 CORRIDA DO MILHO RESULTADO MASCULINO

Posição Nome Tempo
1 MARCELO BARBOSA DE SOUZA 76 00:18:37
2 JOSÉ ERALDO DE LIMA 137 00:18:45
3 CLAUDENIR DA SILVA CARDOSO 139 00:18:48
4 LUCAS ALVES SALOMÃO 1 00:20:05
5 BRUNO ANTONIO DA SILVA 43 00:20:11
6 APARECIDO ANTERO DA SILVA 235 00:20:09
7 MARCELO DOS SANTOS 119 00:20:15
8 DEIGO DE SOUZA VIEIRA 3 00:20:22
9 RONALDO WILLIAN DE PAIVA 41 00:20:40
10 EMERSON JACQUES DE OLIVEIRA 201 00:20:49
11 CARLOS DE OLIVEIRA GUERRA 81 00:20:59
12 TIAGO CHAGAS 29 00:21:02
13 ROSANGELO PAULO DE SOUZA 110 00:21:15
14 WILSON VERZA JUNIOR 7 00:21:17
15 MARCOS ALVES CORREA 161 00:21:31
16 JOAO MARCO DOS SANTOS 117 00:21:34
17 LUIZ HENRIQUE PEREIRA 33 00:21:35
18 VICTOR HUGO PROTANO SILVA 353 00:21:36
19 PEDRO KOLTUN 355 00:21:37
20 VILSON LEAL 169 00:21:39
21 ADRIANO FARIAS DOS SANTOS 77 00:21:48
22 OZADIR JOSÉ DE FRANÇA 72 00:22:08
23 ANTONIO MARCOS DOS SANTOS 198 00:22:16
24 OSMAIR ALVES COSTA 243 00:22:16
25 VAGNER CAMPOS DE BULHÕES 197 00:22:18
26 EUSEBIO JOSE GOMES 276 00:22:23
27 JOÉSON DIAS DA SILVA 116 00:22:34
28 JULIO CEZAR SANTOS BOASKI 36 00:22:38
29 JOSEMAR KURUNCZI 162 00:22:45
30 JAIR AGOSTINHO 275 00:22:55
31 NATAN SALVADOR MATIAS 8 00:23:02
32 RAFAEL FRANCISCO FERREIRA 6 00:23:03
33 JORGE ALBRTO DA LUZ 250 00:23:12
34 OSMAR ALVES DA SILVA 242 00:23:23
35 MOACYR MATURANA 238 00:23:37
36 WALDIR HENRIQUE FERNANDES 326 00:23:43
37 EDIMILSON LIMA DOS SANTOS 11 00:24:15
38 LUIS CLAUDIO DE FREITAS 399 00:24:21
39 LAZARO RODRIGUES RIBEIRO 30 00:24:23
40 FRANCISCO GERSON DOS SANTOS 165 00:24:29
41 ANTONIO ANDRADE WERNECK 204 00:24:37
42 JORGE LINO GONÇALVES 323 00:24:43
43 ELEANDRO ROSAS 130 00:24:46
44 ELENILSON REIS DA SILVA 166 00:24:48
45 JOSÉ CARLOS RAMOS 207 00:24:50
46 LUIS ALEXANDRE DO NASCIMENTO 205 00:24:51
47 ALISSON ZABEL 9 00:24:54
48 LEANDRO MARCELO DA SILVA 111 00:25:25
49 REINALDO ALCANTARA MOREIRA 277 00:25:29
50 EDERSON MATULOVIC 131 00:25:42
51 BERNARDINO FERREIRA DA SILVA 239 00:25:42
52 FABIANO B. SILVERIO 134 00:26:04
53 DOUGLAS DA COSTA SANTOS 75 00:26:16
54 CLAUDINEI JOSÉ GONÇALVES 202 00:26:26
55 PAULO DE TARSO DE SOUZA 236 00:26:34
56 MATHEUS DE ARAUJO 354 00:26:38
57 PAULO DA SILVA TORRIANI 240 00:26:48
58 GILSON DE JESUS COSTA 397 00:26:55
59 GILBERTO YOSHIO TERABE 199 00:27:01
60 LUIZ RICARDO ZANCHIN 83 00:27:32
61 JOSÉ ADAIR CARDOSO 400 00:27:34
62 CLAUDINEI NASCIMENTO MACHADO 109 00:28:01
63 ELCIO SANTOS DE MIRANDA 245 00:28:10
64 EDSON DOS REIS 274 00:28:21
65 EDISON AMERICO SANGA 278 00:28:34
66 ROGERIO P GRANADA 167 00:28:45
67 THALLYS JOÃO ANTONIO NAVES 69 00:29:03
68 JAIR FERREIRA DA SILVA 212 00:29:07
69 MARIO DE JESUS DE ALMEIDA 299 00:29:25
70 INACIO MENDES SANTANA NETO 108 00:29:46
71 ALESSANDRO SEBASTIÃO JOSÉ ANDRELINO 114 00:29:46
72 JOAO CARLOS BARBOZA 234 00:30:04
73 PAULO FRANCISCO DE SOUZA 244 00:30:07
74 MARCOS QUINTINO 118 00:30:09
75 JEFERSON POLICARPO DA SILVA 279 00:30:13
76 FRANCIS BENASSE 79 00:30:17
77 EXPEDITO VIEIRA DE SOUZA 301 00:31:04
78 ANTONIO ROSALINO CAMARGO 246 00:31:58
79 JOSE BERTI FILHO 249 00:32:18
80 IVALDO DE JESUS RODOLFO 302 00:32:30
81 BRENO DE OLIVEIRA GONÇALVES 10 00:33:29
82 LUIZ ALBERTO FERANANDES 306 00:34:07
83 ROBERTO THUKANE KAMAURA 303 00:34:10
84 AIRTON DOMINGUES 113 00:36:20
85 YOSHIO MAEDA 330 00:36:54
86 JOÃO DIAS 304 00:39:28
87 RENATO GONÇALVES DE OLIVEIRAU 203 00:48:35
<< Voltar